sat.trackr.live / text

‹ back to catalog

STARLINK-30381

NORAD 57785 · 2023-134Q

PAYLOAD ACTIVE UNKNOWN

§ Identity

Operator
Country
US
Launch date
2023-09-04
Launch site
AFETR
Launch vehicle
Mass (kg)
RCS (m²)

Purposes: comms

External: N2YO · Heavens-Above · Gunter

§ Orbital elements

Epoch: 2026-09-20T10:58:46.881120Z

Period
94.27 min
Inclination
43.0004°
Eccentricity
0.0001170
Mean motion
15.27581879 rev/d
Perigee alt
482.2 km
Apogee alt
483.8 km
Semi-major
6,861.2 km
B*
1.4879e-6
RAAN
174.4805°
Arg perigee
263.9989°
Mean anomaly
96.0729°
Rev number
16,929

§ Raw data

STARLINK-303811 57785U 23134Q   26263.45748705 -.00000221  00000+0  14879-5 0  99932 57785  43.0004 174.4805 0001170 263.9989  96.0729 15.27581879169292

JSON: /api/v1/satellites/57785 · /tle

For live sub-satellite position, see the globe view (requires WebGL).

§ Visibility from observer

Set your observer location to see the next 7 days of passes ≥ 10°. The values pass through the URL so the page stays shareable.

No JS? Fill the form by hand. The geolocation button needs JavaScript.